Lufkin, TX

12:32 PM CDT on August 19, 2017 (GMT -0500)
Angelina County

Weather History for KLFK - December, 2012

Change the Weather History Date:

Thursday, December 6, 2012

  Actual Average Record
Temperature  
Mean Temperature 58 °F 52 °F  
Max Temperature 65 °F 63 °F 86 °F (1927)
Min Temperature 50 °F 41 °F 15 °F (1950)
Degree Days  
Heating Degree Days 7 14  
Month to date heating degree days 12 78  
Since 1 July heating degree days 295 385  
Cooling Degree Days 0 0  
Month to date cooling degree days 27 4  
Year to date cooling degree days 3198 2587  
Growing Degree Days 7 (Base 50)    
Moisture  
Dew Point 52 °F    
Average Humidity 78    
Maximum Humidity 89    
Minimum Humidity 67    
Precipitation  
Precipitation 0.00 in 0.15 in 1.74 in (1976)
Month to date precipitation T 0.93  
Year to date precipitation 38.72 45.44  
Snow  
Snow 0.00 in - - ()
Month to date snowfall 0.0  
Since 1 July snowfall 0.0  
Snow Depth -    
Sea Level Pressure  
Sea Level Pressure 29.96 in    
Wind  
Wind Speed 5 mph (SE)    
Max Wind Speed 9 mph    
Max Gust Speed 17 mph    
Visibility 7 miles    
Events Fog    
T = Trace of Precipitation, MM = Missing Value Source: NWS Daily Summary

Daily Weather History Graph

Daily Weather History Graph

Search for Another Location

Airport or City:

Trip Planner

Search our weather history database for the weather conditions in past years. The results will help you decide how hot, cold, wet, or windy it might be!

Date:

Astronomy

Dec. 06, 2012 Rise Set
Actual Time 7:04 AM CST 5:16 PM CST
Civil Twilight 6:37 AM CST 5:42 PM CST
Nautical Twilight 6:07 AM CST 6:12 PM CST
Astronomical Twilight 5:38 AM CST 6:42 PM CST
Moon No Moon Rise 12:19 PM CST (12/6)
Length of Visible Light 11h 05m
Length of Day
10h 11m
Waning Gibbous, 49% of the Moon is Illuminated
Dec 6
Waning Gibbous
Dec 13
New
Dec 19
First Quarter
Dec 28
Full
Jan 4
Last Quarter

Hourly Weather History & Observations

Time (CST) Temp. Dew Point Humidity Pressure Visibility Wind Dir Wind Speed Gust Speed Precip Events Conditions
12:53 AM 59.0 °F 55.0 °F 87% 30.04 in 10.0 mi East 4.6 mph - N/A   Overcast
1:40 AM 59.0 °F 53.6 °F 82% 30.04 in 10.0 mi ESE 6.9 mph - N/A   Overcast
1:53 AM 59.0 °F 55.0 °F 87% 30.04 in 10.0 mi East 3.5 mph - N/A   Overcast
2:53 AM 59.0 °F 54.0 °F 83% 30.04 in 10.0 mi East 5.8 mph - N/A   Overcast
3:53 AM 57.9 °F 54.0 °F 87% 30.03 in 10.0 mi SE 4.6 mph - N/A   Overcast
4:53 AM 57.9 °F 54.0 °F 87% 30.01 in 10.0 mi SSE 6.9 mph - N/A   Overcast
5:21 AM 57.2 °F 53.6 °F 88% 30.01 in 10.0 mi SE 4.6 mph - N/A   Overcast
6:30 AM 57.2 °F 53.6 °F 88% 30.02 in 10.0 mi East 4.6 mph - N/A   Overcast
6:53 AM 57.0 °F 53.1 °F 87% 30.02 in 10.0 mi ESE 5.8 mph - N/A   Overcast
8:53 AM 57.9 °F 53.1 °F 84% 30.03 in 10.0 mi ESE 6.9 mph - N/A   Overcast
9:53 AM 60.1 °F 54.0 °F 80% 30.04 in 10.0 mi SE 5.8 mph - N/A   Overcast
10:33 AM 60.8 °F 53.6 °F 77% 30.03 in 10.0 mi Calm Calm - N/A   Mostly Cloudy
11:53 AM 63.0 °F 54.0 °F 72% 29.99 in 10.0 mi SE 6.9 mph - N/A   Overcast
12:08 PM 62.6 °F 53.6 °F 72% 29.99 in 10.0 mi SE 5.8 mph - N/A   Overcast
12:53 PM 63.0 °F 54.0 °F 72% 29.95 in 10.0 mi SE 8.1 mph - N/A   Overcast
1:53 PM 64.0 °F 54.0 °F 70% 29.93 in 10.0 mi SE 5.8 mph - N/A   Overcast
2:53 PM 63.0 °F 54.0 °F 72% 29.92 in 10.0 mi SSE 6.9 mph - N/A   Overcast
3:53 PM 64.0 °F 53.1 °F 67% 29.91 in 10.0 mi Variable 3.5 mph - N/A   Overcast
5:53 PM 61.0 °F 53.1 °F 75% 29.91 in 10.0 mi South 3.5 mph - N/A   Mostly Cloudy
6:53 PM 57.9 °F 53.1 °F 84% 29.91 in 9.0 mi SE 3.5 mph - N/A   Mostly Cloudy
7:05 PM 57.2 °F 51.8 °F 82% 29.92 in 9.0 mi SE 3.5 mph - N/A   Scattered Clouds
7:53 PM 55.4 °F 51.8 °F 88% 29.92 in 7.0 mi Calm Calm - N/A   Clear
8:53 PM 55.0 °F 51.1 °F 86% 29.91 in 7.0 mi SE 3.5 mph - N/A   Clear
10:24 PM 53.6 °F 51.8 °F 94% 29.92 in 1.8 mi Calm Calm - N/A   Clear
10:33 PM 53.6 °F 51.8 °F 94% 29.92 in 0.5 mi Calm Calm - N/A Fog Fog
10:53 PM 51.1 °F 48.0 °F 89% 29.91 in 0.2 mi Calm Calm - N/A Fog Fog
11:01 PM 51.8 °F 48.2 °F 88% 29.92 in 0.5 mi SSE 3.5 mph - N/A Fog Fog
11:15 PM 51.8 °F 48.2 °F 88% 29.91 in 2.0 mi SE 4.6 mph - N/A   Clear
11:19 PM 51.8 °F 48.2 °F 88% 29.91 in 1.0 mi SE 3.5 mph - N/A   Mist
11:26 PM 50.0 °F 48.2 °F 94% 29.91 in 0.2 mi SE 3.5 mph - N/A Fog Fog
11:51 PM 51.8 °F 48.2 °F 88% 29.91 in 1.0 mi SE 4.6 mph - N/A   Mist
11:53 PM 52.0 °F 48.9 °F 89% 29.91 in 1.8 mi SE 4.6 mph - N/A   Scattered Clouds
11:56 PM 51.8 °F 48.2 °F 88% 29.91 in 2.5 mi SE 3.5 mph - N/A   Mostly Cloudy